This is the latest recevied weather packets stored in our database for station/object HB9EYW-6. If no packets are shown the sender has not sent any weather packets the latest 10 day(s).
| Time | Temp. | Humidity | Pressure | Rain* | Wind** | Luminosity | Snow |
|---|---|---|---|---|---|---|---|
| 1777813504 | 27.22° C | 10% | 0 hPa | 0 mm | - | - | - |
| 1777813204 | 27.22° C | 10% | 0 hPa | 0 mm | - | - | - |
| 1777812904 | 27.22° C | 10% | 0 hPa | 0 mm | - | - | - |
| 1777812604 | 27.22° C | 10% | 0 hPa | 0 mm | - | - | - |
| 1777812304 | 27.22° C | 10% | 0 hPa | 0 mm | - | - | - |
| 1777812004 | 27.22° C | 10% | 0 hPa | 0 mm | - | - | - |
| 1777811704 | 26.67° C | 10% | 0 hPa | 0 mm | - | - | - |
| 1777811404 | 26.67° C | 10% | 0 hPa | 0 mm | - | - | - |
| 1777811104 | 26.67° C | 11% | 0 hPa | 0 mm | - | - | - |
| 1777810804 | 26.67° C | 11% | 0 hPa | 0 mm | - | - | - |
| 1777810504 | 26.67° C | 10% | 0 hPa | 0 mm | - | - | - |
| 1777810204 | 26.67° C | 10% | 0 hPa | 0 mm | - | - | - |
| 1777809904 | 26.67° C | 11% | 0 hPa | 0 mm | - | - | - |
| 1777809604 | 26.67° C | 11% | 0 hPa | 0 mm | - | - | - |
| 1777809304 | 26.11° C | 14% | 0 hPa | 0 mm | - | - | - |
| 1777809004 | 26.11° C | 12% | 0 hPa | 0 mm | - | - | - |
| 1777808704 | 25.56° C | 14% | 0 hPa | 0 mm | - | - | - |
| 1777808404 | 25.56° C | 14% | 0 hPa | 0 mm | - | - | - |
| 1777808104 | 25° C | 14% | 0 hPa | 0 mm | - | - | - |
| 1777807804 | 25.56° C | 13% | 0 hPa | 0 mm | - | - | - |
| 1777807504 | 25.56° C | 13% | 0 hPa | 0 mm | - | - | - |
| 1777807204 | 25.56° C | 14% | 0 hPa | 0 mm | - | - | - |
| 1777806904 | 26.11° C | 13% | 0 hPa | 0 mm | - | - | - |
| 1777806604 | 26.67° C | 14% | 0 hPa | 0 mm | - | - | - |
| 1777806304 | 26.67° C | 18% | 0 hPa | 0 mm | - | - | - |
* Rain latest hour (hover to see other rain measurements)
** Current wind speed in m/s (hover to see current wind gust speed)